Time,TemperatureF,DewpointF,PressureIn,WindDirection,WindDirectionDegrees,WindSpeedMPH,WindSpeedGustMPH,Humidity,HourlyPrecipIn,Conditions,Clouds,dailyrainin,SoftwareType,DateUTC
2013-07-09 00:01:00,65.0,41.0,30.38,WNW,292,5.0,12.0,41,0.00,,,0.07,,2013-07-09 06:01:00,
2013-07-09 00:11:00,65.0,41.0,30.38,WNW,292,5.0,12.0,41,0.00,,,0.07,,2013-07-09 06:11:00,
2013-07-09 00:22:00,66.0,42.0,30.38,West,271,4.0,12.0,41,0.00,,,0.07,,2013-07-09 06:22:00,
2013-07-09 00:33:00,64.0,41.0,30.40,WNW,283,2.0,4.0,43,0.00,,,0.07,,2013-07-09 06:33:00,
2013-07-09 00:43:00,64.0,41.0,30.40,WNW,283,2.0,4.0,43,0.00,,,0.07,,2013-07-09 06:43:00,
2013-07-09 00:53:00,63.0,41.0,30.40,SW,233,4.0,6.0,44,0.00,,,0.07,,2013-07-09 06:53:00,
2013-07-09 01:02:00,61.0,41.0,30.39,West,261,3.0,6.0,48,0.00,,,0.07,,2013-07-09 07:02:00,
2013-07-09 01:11:00,61.0,41.0,30.39,West,261,3.0,6.0,48,0.00,,,0.07,,2013-07-09 07:11:00,
2013-07-09 01:22:00,63.0,41.0,30.40,WSW,249,4.0,7.0,45,0.00,,,0.07,,2013-07-09 07:22:00,
2013-07-09 01:33:00,61.0,41.0,30.40,WSW,257,5.0,6.0,47,0.00,,,0.07,,2013-07-09 07:33:00,
2013-07-09 01:43:00,61.0,41.0,30.40,WSW,257,5.0,6.0,47,0.00,,,0.07,,2013-07-09 07:43:00,
2013-07-09 01:53:00,61.0,41.0,30.40,WSW,242,4.0,6.0,48,0.00,,,0.07,,2013-07-09 07:53:00,
2013-07-09 02:01:00,59.0,41.0,30.40,South,180,4.0,7.0,52,0.00,,,0.07,,2013-07-09 08:01:00,
2013-07-09 02:11:00,59.0,41.0,30.40,South,180,4.0,7.0,52,0.00,,,0.07,,2013-07-09 08:11:00,
2013-07-09 02:22:00,58.0,40.0,30.40,WSW,241,2.0,5.0,51,0.00,,,0.07,,2013-07-09 08:22:00,
2013-07-09 02:33:00,59.0,40.0,30.40,WSW,243,4.0,7.0,49,0.00,,,0.07,,2013-07-09 08:33:00,
2013-07-09 02:43:00,59.0,40.0,30.40,WSW,243,4.0,7.0,49,0.00,,,0.07,,2013-07-09 08:43:00,
2013-07-09 02:52:00,57.0,41.0,30.39,SW,215,3.0,9.0,55,0.00,,,0.07,,2013-07-09 08:52:00,
2013-07-09 03:02:00,57.0,41.0,30.40,SSW,203,4.0,9.0,55,0.00,,,0.07,,2013-07-09 09:02:00,
2013-07-09 03:11:00,57.0,41.0,30.40,SSW,203,4.0,9.0,55,0.00,,,0.07,,2013-07-09 09:11:00,
2013-07-09 03:22:00,58.0,39.0,30.40,WSW,250,4.0,6.0,50,0.00,,,0.07,,2013-07-09 09:22:00,
2013-07-09 03:34:00,60.0,40.0,30.41,West,261,4.0,7.0,47,0.00,,,0.07,,2013-07-09 09:34:00,
2013-07-09 03:42:00,60.0,40.0,30.41,West,261,4.0,7.0,47,0.00,,,0.07,,2013-07-09 09:42:00,
2013-07-09 03:53:00,61.0,40.0,30.40,WNW,303,3.0,12.0,45,0.00,,,0.07,,2013-07-09 09:53:00,
2013-07-09 04:01:00,61.0,40.0,30.41,WNW,295,5.0,17.0,45,0.00,,,0.07,,2013-07-09 10:01:00,
2013-07-09 04:11:00,61.0,40.0,30.41,WNW,295,5.0,17.0,45,0.00,,,0.07,,2013-07-09 10:11:00,
2013-07-09 04:22:00,62.0,40.0,30.42,WNW,294,5.0,18.0,44,0.00,,,0.07,,2013-07-09 10:22:00,
2013-07-09 04:33:00,61.0,40.0,30.40,NW,306,5.0,11.0,45,0.00,,,0.07,,2013-07-09 10:33:00,
2013-07-09 04:42:00,61.0,40.0,30.40,NW,306,5.0,11.0,45,0.00,,,0.07,,2013-07-09 10:42:00,
2013-07-09 04:52:00,60.0,39.0,30.40,WSW,246,3.0,7.0,46,0.00,,,0.07,,2013-07-09 10:52:00,
2013-07-09 05:01:00,58.0,40.0,30.40,SSW,196,3.0,7.0,51,0.00,,,0.07,,2013-07-09 11:01:00,
2013-07-09 05:11:00,58.0,40.0,30.40,SSW,196,3.0,7.0,51,0.00,,,0.07,,2013-07-09 11:11:00,
2013-07-09 05:22:00,57.0,39.0,30.41,WSW,240,4.0,11.0,51,0.00,,,0.07,,2013-07-09 11:22:00,
2013-07-09 05:33:00,57.0,39.0,30.41,SSW,202,4.0,9.0,51,0.00,,,0.07,,2013-07-09 11:33:00,
2013-07-09 05:42:00,57.0,39.0,30.41,SSW,202,4.0,9.0,51,0.00,,,0.07,,2013-07-09 11:42:00,
2013-07-09 05:53:00,57.0,40.0,30.42,SW,219,3.0,12.0,52,0.00,,,0.07,,2013-07-09 11:53:00,
2013-07-09 06:02:00,55.0,39.0,30.41,SSW,206,6.0,10.0,55,0.00,,,0.07,,2013-07-09 12:02:00,
2013-07-09 06:11:00,55.0,39.0,30.41,SSW,206,6.0,10.0,55,0.00,,,0.07,,2013-07-09 12:11:00,
2013-07-09 06:22:00,56.0,39.0,30.42,South,183,5.0,9.0,53,0.00,,,0.07,,2013-07-09 12:22:00,
2013-07-09 06:33:00,57.0,40.0,30.42,SSW,195,6.0,9.0,53,0.00,,,0.07,,2013-07-09 12:33:00,
2013-07-09 06:43:00,57.0,40.0,30.42,SSW,195,6.0,9.0,53,0.00,,,0.07,,2013-07-09 12:43:00,
2013-07-09 06:52:00,57.0,40.0,30.43,SW,234,9.0,14.0,52,0.00,,,0.07,,2013-07-09 12:52:00,
2013-07-09 07:01:00,58.0,40.0,30.43,South,187,5.0,11.0,52,0.00,,,0.07,,2013-07-09 13:01:00,
2013-07-09 07:11:00,58.0,40.0,30.43,South,187,5.0,11.0,52,0.00,,,0.07,,2013-07-09 13:11:00,
2013-07-09 07:22:00,61.0,41.0,30.42,SSW,205,0.0,4.0,47,0.00,,,0.07,,2013-07-09 13:22:00,
2013-07-09 07:33:00,61.0,42.0,30.43,SSW,213,0.0,2.0,50,0.00,,,0.07,,2013-07-09 13:33:00,
2013-07-09 07:43:00,61.0,42.0,30.43,SSW,213,0.0,2.0,50,0.00,,,0.07,,2013-07-09 13:43:00,
2013-07-09 07:53:00,61.0,43.0,30.43,South,178,5.0,7.0,51,0.00,,,0.07,,2013-07-09 13:53:00,
2013-07-09 08:01:00,64.0,42.0,30.45,South,180,0.0,7.0,45,0.00,,,0.07,,2013-07-09 14:01:00,
2013-07-09 08:11:00,64.0,42.0,30.45,South,180,0.0,7.0,45,0.00,,,0.07,,2013-07-09 14:11:00,
2013-07-09 08:22:00,66.0,43.0,30.43,South,176,3.0,6.0,43,0.00,,,0.07,,2013-07-09 14:22:00,
2013-07-09 08:34:00,68.0,45.0,30.45,South,169,4.0,7.0,43,0.00,,,0.07,,2013-07-09 14:34:00,
2013-07-09 08:43:00,68.0,45.0,30.45,South,169,4.0,7.0,43,0.00,,,0.07,,2013-07-09 14:43:00,
2013-07-09 09:12:00,74.0,42.0,30.44,South,190,6.0,10.0,32,0.00,,,0.07,,2013-07-09 15:12:00,
2013-07-09 09:33:00,77.0,41.0,30.45,WSW,242,2.0,9.0,28,0.00,,,0.07,,2013-07-09 15:33:00,
2013-07-09 09:52:00,76.0,41.0,30.44,WNW,294,5.0,14.0,28,0.00,,,0.07,,2013-07-09 15:52:00,
2013-07-09 10:02:00,78.0,41.0,30.45,ENE,59,0.0,11.0,27,0.00,,,0.07,,2013-07-09 16:02:00,
2013-07-09 10:11:00,78.0,41.0,30.45,ENE,59,0.0,11.0,27,0.00,,,0.07,,2013-07-09 16:11:00,
2013-07-09 10:22:00,78.0,41.0,30.45,West,265,2.0,11.0,27,0.00,,,0.07,,2013-07-09 16:22:00,
2013-07-09 10:34:00,79.0,39.0,30.45,SSE,160,3.0,13.0,24,0.00,,,0.07,,2013-07-09 16:34:00,
2013-07-09 10:43:00,79.0,39.0,30.45,SSE,160,3.0,13.0,24,0.00,,,0.07,,2013-07-09 16:43:00,
2013-07-09 10:53:00,80.0,37.0,30.45,SSW,203,5.0,16.0,21,0.00,,,0.07,,2013-07-09 16:53:00,
2013-07-09 11:02:00,80.0,38.0,30.45,WSW,248,5.0,18.0,22,0.00,,,0.07,,2013-07-09 17:02:00,
2013-07-09 11:11:00,80.0,38.0,30.45,WSW,248,5.0,18.0,22,0.00,,,0.07,,2013-07-09 17:11:00,
2013-07-09 11:22:00,80.0,37.0,30.45,NW,304,6.0,14.0,21,0.00,,,0.07,,2013-07-09 17:22:00,
2013-07-09 11:35:00,80.0,34.0,30.45,NW,310,8.0,15.0,19,0.00,,,0.07,,2013-07-09 17:35:00,
2013-07-09 11:45:00,80.0,34.0,30.45,NW,310,8.0,15.0,19,0.00,,,0.07,,2013-07-09 17:45:00,
2013-07-09 11:53:00,80.0,33.0,30.45,WNW,290,9.0,17.0,18,0.00,,,0.07,,2013-07-09 17:53:00,
2013-07-09 12:01:00,82.0,31.0,30.45,NNW,336,6.0,18.0,16,0.00,,,0.07,,2013-07-09 18:01:00,
2013-07-09 12:11:00,82.0,31.0,30.45,NNW,336,6.0,18.0,16,0.00,,,0.07,,2013-07-09 18:11:00,
2013-07-09 12:22:00,81.0,33.0,30.45,NW,311,7.0,22.0,18,0.00,,,0.07,,2013-07-09 18:22:00,
2013-07-09 12:32:00,81.0,33.0,30.43,NNW,327,6.0,23.0,18,0.00,,,0.07,,2013-07-09 18:32:00,
2013-07-09 12:42:00,81.0,33.0,30.43,NNW,327,6.0,23.0,18,0.00,,,0.07,,2013-07-09 18:42:00,
2013-07-09 12:52:00,80.0,35.0,30.44,NW,319,9.0,19.0,20,0.00,,,0.07,,2013-07-09 18:52:00,
2013-07-09 13:01:00,80.0,38.0,30.44,WNW,302,6.0,19.0,22,0.00,,,0.07,,2013-07-09 19:01:00,
2013-07-09 13:11:00,80.0,38.0,30.44,WNW,302,6.0,19.0,22,0.00,,,0.07,,2013-07-09 19:11:00,
2013-07-09 13:22:00,80.0,37.0,30.44,NNW,329,8.0,13.0,21,0.00,,,0.07,,2013-07-09 19:22:00,
2013-07-09 13:33:00,79.0,38.0,30.43,SSW,196,6.0,14.0,23,0.00,,,0.07,,2013-07-09 19:33:00,
2013-07-09 13:42:00,79.0,38.0,30.43,SSW,196,6.0,14.0,23,0.00,,,0.07,,2013-07-09 19:42:00,
2013-07-09 13:52:00,80.0,37.0,30.44,SSW,193,8.0,14.0,21,0.00,,,0.07,,2013-07-09 19:52:00,
2013-07-09 14:01:00,81.0,37.0,30.43,SSE,165,3.0,18.0,21,0.00,,,0.07,,2013-07-09 20:01:00,
2013-07-09 14:11:00,81.0,37.0,30.43,SSE,165,3.0,18.0,21,0.00,,,0.07,,2013-07-09 20:11:00,
2013-07-09 14:21:00,82.0,37.0,30.43,SSW,212,8.0,14.0,20,0.00,,,0.07,,2013-07-09 20:21:00,
2013-07-09 14:32:00,83.0,38.0,30.44,SSW,209,8.0,13.0,20,0.00,,,0.07,,2013-07-09 20:32:00,
2013-07-09 14:42:00,83.0,38.0,30.44,SSW,209,8.0,13.0,20,0.00,,,0.07,,2013-07-09 20:42:00,
2013-07-09 14:52:00,82.0,36.0,30.42,WNW,288,11.0,20.0,19,0.00,,,0.07,,2013-07-09 20:52:00,
2013-07-09 15:01:00,83.0,36.0,30.42,West,272,12.0,20.0,19,0.00,,,0.07,,2013-07-09 21:01:00,
2013-07-09 15:11:00,83.0,36.0,30.42,West,272,12.0,20.0,19,0.00,,,0.07,,2013-07-09 21:11:00,
2013-07-09 15:22:00,81.0,36.0,30.42,WNW,291,6.0,18.0,20,0.00,,,0.07,,2013-07-09 21:22:00,
2013-07-09 15:32:00,81.0,37.0,30.43,South,190,8.0,13.0,21,0.00,,,0.07,,2013-07-09 21:32:00,
2013-07-09 15:42:00,81.0,37.0,30.43,South,190,8.0,13.0,21,0.00,,,0.07,,2013-07-09 21:42:00,
2013-07-09 15:52:00,82.0,38.0,30.42,SSW,192,15.0,23.0,21,0.00,,,0.07,,2013-07-09 21:52:00,
2013-07-09 16:01:00,79.0,38.0,30.42,West,265,1.0,10.0,23,0.00,,,0.07,,2013-07-09 22:01:00,
2013-07-09 16:11:00,79.0,38.0,30.42,West,265,1.0,10.0,23,0.00,,,0.07,,2013-07-09 22:11:00,
2013-07-09 16:22:00,78.0,40.0,30.45,NNE,18,5.0,12.0,26,0.00,,,0.07,,2013-07-09 22:22:00,
2013-07-09 16:33:00,78.0,38.0,30.42,ENE,63,3.0,16.0,24,0.00,,,0.07,,2013-07-09 22:33:00,
2013-07-09 16:42:00,78.0,38.0,30.42,ENE,63,3.0,16.0,24,0.00,,,0.07,,2013-07-09 22:42:00,
2013-07-09 16:53:00,79.0,39.0,30.44,NNE,28,5.0,16.0,24,0.00,,,0.07,,2013-07-09 22:53:00,
2013-07-09 17:02:00,77.0,39.0,30.45,NW,317,7.0,15.0,26,0.00,,,0.07,,2013-07-09 23:02:00,
2013-07-09 17:11:00,77.0,39.0,30.45,NW,317,7.0,15.0,26,0.00,,,0.07,,2013-07-09 23:11:00,
2013-07-09 17:22:00,76.0,41.0,30.45,NW,319,6.0,14.0,28,0.00,,,0.07,,2013-07-09 23:22:00,
2013-07-09 17:33:00,74.0,39.0,30.46,SSW,209,11.0,20.0,28,0.00,,,0.06,,2013-07-09 23:33:00,
2013-07-09 17:43:00,74.0,39.0,30.46,SSW,209,11.0,20.0,28,0.00,,,0.06,,2013-07-09 23:43:00,
2013-07-09 17:53:00,74.0,40.0,30.46,South,188,4.0,14.0,29,0.00,,,0.06,,2013-07-09 23:53:00,
2013-07-09 18:01:00,73.0,40.0,30.47,SSW,200,7.0,15.0,30,0.00,,,0.06,,2013-07-10 00:01:00,
2013-07-09 18:11:00,73.0,40.0,30.47,SSW,200,7.0,15.0,30,0.00,,,0.06,,2013-07-10 00:11:00,
2013-07-09 18:22:00,72.0,40.0,30.46,SW,227,5.0,12.0,31,0.00,,,0.06,,2013-07-10 00:22:00,
2013-07-09 18:33:00,73.0,41.0,30.46,SSW,202,8.0,13.0,31,0.00,,,0.00,,2013-07-10 00:33:00,
2013-07-09 18:42:00,73.0,41.0,30.46,SSW,202,8.0,13.0,31,0.00,,,0.00,,2013-07-10 00:42:00,
2013-07-09 18:52:00,74.0,41.0,30.45,South,175,5.0,13.0,31,0.00,,,0.00,,2013-07-10 00:52:00,
2013-07-09 19:01:00,76.0,41.0,30.42,SSW,198,7.0,12.0,28,0.00,,,0.00,,2013-07-10 01:01:00,
2013-07-09 19:11:00,76.0,41.0,30.42,SSW,198,7.0,12.0,28,0.00,,,0.00,,2013-07-10 01:11:00,
2013-07-09 19:22:00,75.0,41.0,30.42,East,94,0.0,4.0,30,0.00,,,0.00,,2013-07-10 01:22:00,
2013-07-09 19:33:00,74.0,41.0,30.44,East,93,0.0,4.0,30,0.00,,,0.00,,2013-07-10 01:33:00,
2013-07-09 19:43:00,74.0,41.0,30.44,East,93,0.0,4.0,30,0.00,,,0.00,,2013-07-10 01:43:00,
2013-07-09 19:53:00,71.0,40.0,30.42,South,186,2.0,4.0,33,0.00,,,0.00,,2013-07-10 01:53:00,
2013-07-09 20:01:00,70.0,40.0,30.42,SSW,198,3.0,9.0,34,0.00,,,0.00,,2013-07-10 02:01:00,
2013-07-09 20:11:00,70.0,40.0,30.42,SSW,198,3.0,9.0,34,0.00,,,0.00,,2013-07-10 02:11:00,
2013-07-09 20:22:00,70.0,40.0,30.42,SW,214,5.0,10.0,34,0.00,,,0.00,,2013-07-10 02:22:00,
2013-07-09 20:34:00,69.0,40.0,30.42,SW,235,4.0,7.0,35,0.00,,,0.00,,2013-07-10 02:34:00,
2013-07-09 20:43:00,69.0,40.0,30.42,SW,235,4.0,7.0,35,0.00,,,0.00,,2013-07-10 02:43:00,
2013-07-09 20:53:00,70.0,40.0,30.42,SW,232,7.0,10.0,34,0.00,,,0.00,,2013-07-10 02:53:00,
2013-07-09 21:01:00,70.0,40.0,30.41,SSW,211,0.0,6.0,33,0.00,,,0.00,,2013-07-10 03:01:00,
2013-07-09 21:11:00,70.0,40.0,30.41,SSW,211,0.0,6.0,33,0.00,,,0.00,,2013-07-10 03:11:00,
2013-07-09 21:22:00,70.0,38.0,30.42,WSW,240,0.0,7.0,31,0.00,,,0.00,,2013-07-10 03:22:00,
2013-07-09 21:32:00,68.0,37.0,30.42,WSW,241,4.0,6.0,32,0.00,,,0.00,,2013-07-10 03:32:00,
2013-07-09 21:43:00,68.0,37.0,30.42,WSW,241,4.0,6.0,32,0.00,,,0.00,,2013-07-10 03:43:00,
2013-07-09 21:52:00,68.0,38.0,30.43,West,260,3.0,7.0,33,0.00,,,0.00,,2013-07-10 03:52:00,
2013-07-09 22:01:00,68.0,39.0,30.43,WSW,248,3.0,7.0,34,0.00,,,0.00,,2013-07-10 04:01:00,
2013-07-09 22:11:00,68.0,39.0,30.43,WSW,248,3.0,7.0,34,0.00,,,0.00,,2013-07-10 04:11:00,
2013-07-09 22:22:00,68.0,39.0,30.44,WNW,286,2.0,10.0,34,0.00,,,0.00,,2013-07-10 04:22:00,
2013-07-09 22:32:00,68.0,39.0,30.44,SW,234,7.0,14.0,35,0.00,,,0.00,,2013-07-10 04:32:00,
2013-07-09 22:43:00,68.0,39.0,30.45,SW,215,6.0,11.0,35,0.00,,,0.00,,2013-07-10 04:43:00,
2013-07-09 22:52:00,67.0,39.0,30.44,SSW,208,4.0,13.0,36,0.00,,,0.00,,2013-07-10 04:52:00,
2013-07-09 23:02:00,66.0,39.0,30.45,West,271,2.0,10.0,37,0.00,,,0.00,,2013-07-10 05:02:00,
2013-07-09 23:11:00,66.0,39.0,30.45,West,271,2.0,10.0,37,0.00,,,0.00,,2013-07-10 05:11:00,
2013-07-09 23:22:00,65.0,41.0,30.46,SSW,206,2.0,6.0,42,0.00,,,0.00,,2013-07-10 05:22:00,
2013-07-09 23:32:00,63.0,41.0,30.46,SW,217,3.0,6.0,44,0.00,,,0.00,,2013-07-10 05:32:00,
2013-07-09 23:42:00,63.0,41.0,30.46,SW,217,3.0,6.0,44,0.00,,,0.00,,2013-07-10 05:42:00,
2013-07-09 23:53:00,62.0,40.0,30.45,SSW,203,0.0,6.0,45,0.00,,,0.00,,2013-07-10 05:53:00,